Retour au catalogue

STARLINK-34959

ActifCommunicationsSSO
NORAD 65246·PAYLOAD·🇺🇸 United States

Lancé Aug 18, 2025 depuis Vandenberg Space Force Base

Loading…

Prochains Passages (prochaines 24 heures)

TLE

FraisSource: CelesTrak SupGP

Époque: Sep 15, 2026, 04:03 UTC

1 65246C 25179M   26258.16923611 -.00026329  00000+0 -81721-3 0  2582
2 65246  97.2834 297.6297 0001002 105.6014  62.2025 15.33456868    17

Suivez STARLINK-34959 en temps réel avec AllMySat

Download on the App Store